ASIASAT 6

Last updated on Sun Oct 06 2024 00:02:40 GMT+0000 (Coordinated Universal Time)

1 40141U 14052A 24279.58714154 -.00000352 00000+0 00000+0 0 9990 2 40141 0.0437 88.7463 0000948 79.9652 177.3401 1.00272874 36857
UTC large
Height (km)
Speed (km/s)
/
Latitude / Longitude
Inclination (degrees)
Orbital Period (minutes)
Azimuth
Elevation
Range (km)
Doppler Factor

Next 0 passes for location: London (51.5072 / 0.1276)

Sorry there are no passes over London.